Regional Weather Roundup
Issued by NWS

Home | Current Version | Previous Version | Text Only | Print | Product List | Glossary On
Versions: 1 2 3 4 5 6 7 8 9 10 11 12 13 14 15 16 17 18 19 20 21 22 23 24 25 26 27 28 29 30 31 32 33 34 35 36 37 38 39 40 41 42 43 44 45 46 47 48 49 50
221
ASUS43 KTOP 250908
RWRKS

WEATHER ROUNDUP FOR KANSAS
NATIONAL WEATHER SERVICE GOODLAND KS
400 AM CDT TUE JUL 25 2017

NOTE:  "FAIR" INDICATES FEW OR NO CLOUDS BELOW 12,000 FEET WITH NO
SIGNIFICANT WEATHER AND/OR OBSTRUCTIONS TO VISIBILITY.

KSZ001>006-013>018-027>032-041>047-251000-
NORTHWEST KANSAS

CITY           SKY/WX    TMP DP  RH WIND       PRES   REMARKS
GOODLAND       CLEAR     72  64  76 S13       30.02F
HAYS             N/A     76  64  66 S10       30.00F
HILL CITY      CLEAR     76  61  59 S9        29.99F
RUSSELL        CLEAR     75  64  68 S12       29.99S
$$

KSZ061>065-074>080-084>089-251000-
SOUTHWEST KANSAS

CITY           SKY/WX    TMP DP  RH WIND       PRES   REMARKS
DODGE CITY     CLEAR     69  63  81 S6        30.05S
ELKHART          N/A     66  54  65 S8          N/A
GARDEN CITY    CLEAR     71  64  78 SE8       30.04F
GREAT BEND     CLEAR     72  65  78 S9        30.02S
LIBERAL        CLEAR     70  65  84 SE8       30.06F
PRATT          CLEAR     69  63  81 S6        30.04S
$$

KSZ066>073-081>083-090>101-251000-
SOUTHEAST KANSAS

CITY           SKY/WX    TMP DP  RH WIND       PRES   REMARKS
CHANUTE        CLEAR     75  73  93 SE6       30.03S
COFFEYVILLE    CLEAR     74  72  93 S3        30.02S
HUTCHINSON     CLEAR     72  67  84 S6        30.01F
MEDICINE LODGE   N/A     76  66  71 SE6       30.02S
NEWTON         CLEAR     73  69  87 S9        30.04S
PARSONS        CLEAR     71  69  93 CALM      30.03F
WICHITA INTL   CLEAR     73  69  87 S6        30.02S
WICHITA JABRA  CLEAR     74  70  87 S6        30.03S
WICHITA MCCONL CLEAR     76  69  78 S7        30.03S
$$

KSZ007>012-019>026-033>040-048>060-102>105-251000-
NORTHEAST KANSAS

CITY           SKY/WX    TMP DP  RH WIND       PRES   REMARKS
CONCORDIA      PTCLDY    77  69  76 S15       29.98S
EMPORIA        CLEAR     74  72  93 SE7       30.02S
LAWRENCE       CLEAR     71  69  93 E7        30.03S
MANHATTAN      CLEAR     77  74  90 S7        30.00R
MARYSVILLE     CLEAR     73  70  88 SE8       30.00S
OLATHE IND     CLEAR     72  67  84 E5        30.04S
OLATHE EXE     CLEAR     71  67  87 SE7       30.04F
SALINA         CLEAR     77  68  73 S8        29.99S
TOPEKA BILLARD CLEAR     74  70  87 SE3       30.02S
TOPEKA FORBES  CLEAR     73  70  90 SE6       30.02F
$$




USA.gov is the U.S. government's official web portal to all federal, state and local government web resources and services.